| time (UTC) | temp F | wind direction | speed knots | gust knots | rain 1hr in | rain 24hr in | rain mn in | humidity % | barometer mb |
| 20260510153038 | 44 | 146 | 0.0 | 0.0 | 0.00 | 0.00 | 0.00 | 93 | 1032.9 |
| 20260510152525 | 45 | 146 | 0.0 | 0.0 | 0.00 | 0.00 | 0.00 | 94 | 1032.9 |
| 20260510152014 | 46 | 146 | 0.0 | 0.0 | 0.00 | 0.00 | 0.00 | 94 | 1033.0 |
| 20260510151522 | 46 | 146 | 0.0 | 0.0 | 0.00 | 0.00 | 0.00 | 95 | 1033.0 |
| 20260510151011 | 47 | 146 | 0.0 | 0.0 | 0.00 | 0.00 | 0.00 | 95 | 1033.0 |
| 20260510150451 | 47 | 146 | 0.0 | 0.0 | 0.00 | 0.00 | 0.00 | 95 | 1033.0 |
| 20260510145938 | 47 | 146 | 0.0 | 0.0 | 0.00 | 0.00 | 0.00 | 95 | 1033.0 |
| 20260510144842 | 47 | 146 | 0.0 | 0.0 | 0.00 | 0.00 | 0.00 | 95 | 1033.0 |
| 20260510144024 | 47 | 146 | 0.0 | 0.0 | 0.00 | 0.00 | 0.00 | 95 | 1033.1 |
| 20260510143529 | 47 | 146 | 0.0 | 0.0 | 0.00 | 0.01 | 0.00 | 95 | 1033.1 |
| 20260510143033 | 47 | 146 | 0.0 | 0.0 | 0.00 | 0.01 | 0.00 | 94 | 1033.0 |
| 20260510142217 | 47 | 146 | 0.0 | 0.0 | 0.00 | 0.01 | 0.00 | 95 | 1033.1 |
| 20260510141715 | 47 | 146 | 0.0 | 0.0 | 0.00 | 0.01 | 0.00 | 94 | 1033.1 |
| 20260510141159 | 47 | 146 | 0.0 | 0.0 | 0.00 | 0.01 | 0.00 | 94 | 1033.1 |
| 20260510140658 | 47 | 146 | 0.0 | 0.9 | 0.00 | 0.01 | 0.00 | 94 | 1033.3 |
| 20260510140201 | 47 | 146 | 0.0 | 0.0 | 0.00 | 0.01 | 0.00 | 94 | 1033.3 |
| 20260510135655 | 47 | 146 | 0.0 | 0.0 | 0.00 | 0.01 | 0.01 | 94 | 1033.3 |
| 20260510135157 | 48 | 146 | 0.0 | 0.0 | 0.00 | 0.01 | 0.01 | 94 | 1033.3 |
| 20260510134659 | 48 | 146 | 0.0 | 0.0 | 0.00 | 0.01 | 0.01 | 94 | 1033.2 |
| 20260510134140 | 48 | 146 | 0.0 | 0.0 | 0.00 | 0.01 | 0.01 | 94 | 1033.3 |
| 20260510133634 | 48 | 146 | 0.0 | 0.0 | 0.00 | 0.01 | 0.01 | 93 | 1033.3 |
| 20260510133133 | 48 | 146 | 0.0 | 0.0 | 0.00 | 0.01 | 0.01 | 93 | 1033.2 |
| 20260510132326 | 48 | 146 | 0.0 | 0.0 | 0.00 | 0.01 | 0.01 | 94 | 1033.3 |
| 20260510131835 | 48 | 146 | 0.0 | 0.0 | 0.00 | 0.01 | 0.01 | 93 | 1033.4 |
| 20260510131336 | 49 | 146 | 0.0 | 0.0 | 0.00 | 0.01 | 0.01 | 93 | 1033.3 |
| 20260510130835 | 49 | 146 | 0.9 | 0.0 | 0.00 | 0.01 | 0.01 | 93 | 1033.3 |
| 20260510130325 | 49 | 146 | 0.0 | 1.7 | 0.00 | 0.01 | 0.01 | 93 | 1033.3 |
| 20260510125813 | 49 | 146 | 0.0 | 3.5 | 0.00 | 0.01 | 0.01 | 93 | 1033.4 |
| 20260510125307 | 49 | 146 | 0.0 | 1.7 | 0.00 | 0.01 | 0.01 | 93 | 1033.4 |
| 20260510124503 | 49 | 146 | 0.0 | 0.9 | 0.00 | 0.01 | 0.01 | 93 | 1033.4 |
| 20260510124009 | 49 | 146 | 0.0 | 0.9 | 0.00 | 0.01 | 0.01 | 93 | 1033.5 |
| 20260510123151 | 50 | 146 | 0.0 | 0.0 | 0.00 | 0.01 | 0.01 | 93 | 1033.5 |
| 20260510122647 | 50 | 146 | 0.0 | 0.0 | 0.00 | 0.01 | 0.01 | 93 | 1033.5 |
| 20260510121849 | 50 | 146 | 0.0 | 0.0 | 0.00 | 0.01 | 0.01 | 93 | 1033.6 |
| 20260510121045 | 50 | 146 | 0.0 | 0.0 | 0.00 | 0.01 | 0.01 | 92 | 1033.6 |
| 20260510120245 | 50 | 146 | 0.0 | 0.0 | 0.00 | 0.01 | 0.01 | 92 | 1033.6 |
| 20260510115735 | 50 | 146 | 0.0 | 0.0 | 0.00 | 0.01 | 0.01 | 91 | 1033.6 |
| 20260510115237 | 51 | 146 | 0.9 | 2.6 | 0.00 | 0.01 | 0.01 | 91 | 1033.6 |
| 20260510114745 | 51 | 146 | 0.9 | 2.6 | 0.00 | 0.01 | 0.01 | 91 | 1033.6 |
| 20260510114235 | 51 | 146 | 0.9 | 0.9 | 0.00 | 0.01 | 0.01 | 91 | 1033.6 |
| 20260510113725 | 51 | 146 | 1.7 | 3.5 | 0.00 | 0.01 | 0.01 | 91 | 1033.5 |
| 20260510113234 | 52 | 117 | 1.7 | 2.6 | 0.00 | 0.01 | 0.01 | 90 | 1033.4 |
| 20260510112738 | 52 | 117 | 0.9 | 2.6 | 0.00 | 0.01 | 0.01 | 90 | 1033.4 |
| 20260510112224 | 52 | 117 | 0.9 | 2.6 | 0.00 | 0.01 | 0.01 | 90 | 1033.4 |
| 20260510111710 | 52 | 111 | 0.0 | 1.7 | 0.00 | 0.01 | 0.01 | 89 | 1033.4 |
| 20260510110855 | 53 | 111 | 0.0 | 0.0 | 0.00 | 0.01 | 0.01 | 89 | 1033.3 |
| 20260510110401 | 53 | 111 | 0.0 | 3.5 | 0.00 | 0.01 | 0.01 | 89 | 1033.3 |
| 20260510105606 | 54 | 112 | 0.9 | 6.1 | 0.00 | 0.01 | 0.01 | 89 | 1033.2 |
| 20260510105056 | 54 | 98 | 1.7 | 6.1 | 0.00 | 0.01 | 0.01 | 88 | 1033.2 |
| 20260510104600 | 54 | 97 | 1.7 | 6.1 | 0.00 | 0.01 | 0.01 | 88 | 1033.2 |
| 20260510104053 | 54 | 120 | 1.7 | 6.1 | 0.00 | 0.01 | 0.01 | 88 | 1033.1 |
| 20260510103548 | 54 | 84 | 1.7 | 6.1 | 0.00 | 0.01 | 0.01 | 87 | 1033.0 |
| 20260510103037 | 54 | 111 | 0.9 | 6.1 | 0.00 | 0.01 | 0.01 | 87 | 1033.0 |
| 20260510102224 | 54 | 92 | 0.9 | 4.3 | 0.00 | 0.01 | 0.01 | 86 | 1032.9 |
| 20260510101423 | 55 | 92 | 0.0 | 4.3 | 0.00 | 0.01 | 0.01 | 85 | 1032.8 |
| 20260510100914 | 55 | 92 | 0.9 | 7.0 | 0.00 | 0.01 | 0.01 | 84 | 1032.6 |
| 20260510100412 | 55 | 92 | 1.7 | 7.0 | 0.00 | 0.01 | 0.01 | 84 | 1032.7 |
| 20260510095859 | 55 | 109 | 1.7 | 7.0 | 0.00 | 0.01 | 0.01 | 84 | 1032.5 |
| 20260510095049 | 55 | 105 | 0.9 | 7.0 | 0.00 | 0.01 | 0.01 | 83 | 1032.5 |
| 20260510094540 | 55 | 100 | 0.0 | 5.2 | 0.00 | 0.01 | 0.01 | 82 | 1032.4 |
| 20260510094037 | 56 | 81 | 0.0 | 5.2 | 0.00 | 0.01 | 0.01 | 81 | 1032.3 |
| 20260510093529 | 56 | 96 | 0.0 | 5.2 | 0.00 | 0.01 | 0.01 | 81 | 1032.2 |
| 20260510093009 | 56 | 107 | 0.9 | 5.2 | 0.00 | 0.01 | 0.01 | 80 | 1032.2 |
| 20260510092504 | 56 | 96 | 0.9 | 5.2 | 0.00 | 0.01 | 0.01 | 79 | 1032.1 |
| 20260510091957 | 56 | 109 | 0.9 | 5.2 | 0.00 | 0.01 | 0.01 | 79 | 1032.0 |
| 20260510091459 | 56 | 90 | 1.7 | 5.2 | 0.00 | 0.01 | 0.01 | 78 | 1031.9 |
| 20260510091005 | 57 | 86 | 1.7 | 5.2 | 0.00 | 0.01 | 0.01 | 78 | 1031.9 |
| 20260510090449 | 57 | 111 | 1.7 | 5.2 | 0.00 | 0.01 | 0.01 | 77 | 1031.7 |
| 20260510085955 | 57 | 96 | 0.9 | 4.3 | 0.00 | 0.01 | 0.01 | 76 | 1031.7 |
| 20260510085437 | 57 | 107 | 0.9 | 5.2 | 0.00 | 0.01 | 0.01 | 75 | 1031.5 |
| 20260510084627 | 57 | 76 | 0.9 | 5.2 | 0.00 | 0.01 | 0.01 | 74 | 1031.4 |
| 20260510084117 | 57 | 76 | 0.9 | 5.2 | 0.00 | 0.01 | 0.01 | 74 | 1031.3 |
| 20260510083614 | 58 | 90 | 0.0 | 3.5 | 0.00 | 0.01 | 0.01 | 73 | 1031.2 |
| 20260510083104 | 58 | 82 | 0.0 | 2.6 | 0.00 | 0.01 | 0.01 | 73 | 1031.1 |
| 20260510082245 | 58 | 101 | 0.0 | 0.9 | 0.00 | 0.01 | 0.01 | 73 | 1031.0 |
| 20260510081747 | 58 | 101 | 0.0 | 0.0 | 0.00 | 0.01 | 0.01 | 72 | 1030.9 |
| 20260510081253 | 58 | 101 | 0.0 | 0.0 | 0.00 | 0.01 | 0.01 | 71 | 1030.7 |
| 20260510080802 | 58 | 101 | 0.0 | 0.0 | 0.00 | 0.01 | 0.01 | 71 | 1030.7 |
| 20260510080250 | 59 | 101 | 0.0 | 0.0 | 0.00 | 0.01 | 0.01 | 70 | 1030.6 |
| 20260510075441 | 59 | 101 | 0.0 | 0.0 | 0.00 | 0.01 | 0.01 | 68 | 1030.5 |
| 20260510074933 | 60 | 101 | 0.0 | 0.0 | 0.00 | 0.01 | 0.01 | 68 | 1030.4 |
| 20260510074428 | 60 | 101 | 0.0 | 0.0 | 0.00 | 0.01 | 0.01 | 67 | 1030.3 |
| 20260510073910 | 60 | 101 | 0.0 | 0.0 | 0.00 | 0.01 | 0.01 | 66 | 1030.2 |
| 20260510073407 | 61 | 101 | 0.0 | 0.0 | 0.00 | 0.01 | 0.01 | 66 | 1030.1 |
| 20260510072859 | 61 | 101 | 0.0 | 0.0 | 0.00 | 0.01 | 0.01 | 65 | 1030.0 |
| 20260510072349 | 62 | 101 | 0.0 | 1.7 | 0.00 | 0.01 | 0.01 | 64 | 1030.0 |
| 20260510071842 | 62 | 101 | 0.0 | 0.0 | 0.00 | 0.01 | 0.01 | 63 | 1030.0 |
| 20260510071330 | 62 | 101 | 0.0 | 1.7 | 0.00 | 0.01 | 0.01 | 62 | 1029.9 |
| 20260510070830 | 63 | 86 | 0.0 | 1.7 | 0.00 | 0.01 | 0.01 | 62 | 1029.8 |
| 20260510070016 | 63 | 86 | 0.0 | 4.3 | 0.00 | 0.01 | 0.01 | 61 | 1029.7 |
| 20260510065506 | 64 | 86 | 0.9 | 4.3 | 0.00 | 0.01 | 0.01 | 60 | 1029.5 |
| 20260510065003 | 64 | 88 | 0.9 | 6.1 | 0.00 | 0.01 | 0.01 | 59 | 1029.5 |
| 20260510064509 | 64 | 94 | 0.9 | 6.1 | 0.00 | 0.01 | 0.01 | 59 | 1029.4 |
| 20260510064019 | 65 | 86 | 0.0 | 6.1 | 0.00 | 0.01 | 0.01 | 59 | 1029.4 |
| 20260510063526 | 65 | 82 | 0.9 | 6.1 | 0.00 | 0.01 | 0.01 | 59 | 1029.3 |
| 20260510063006 | 65 | 96 | 0.9 | 3.5 | 0.00 | 0.01 | 0.01 | 58 | 1029.2 |
| 20260510062450 | 66 | 122 | 0.0 | 3.5 | 0.00 | 0.01 | 0.01 | 57 | 1029.1 |
| 20260510061933 | 66 | 80 | 0.0 | 2.6 | 0.00 | 0.01 | 0.01 | 57 | 1029.1 |
| 20260510061415 | 66 | 84 | 0.0 | 5.2 | 0.00 | 0.01 | 0.01 | 56 | 1029.1 |
| 20260510060900 | 67 | 116 | 0.0 | 5.2 | 0.00 | 0.01 | 0.01 | 56 | 1029.0 |
| 20260510060405 | 67 | 97 | 0.0 | 5.2 | 0.00 | 0.01 | 0.01 | 55 | 1029.0 |
| 20260510055908 | 67 | 108 | 0.0 | 5.2 | 0.00 | 0.01 | 0.01 | 55 | 1029.0 |
| 20260510054758 | 67 | 107 | 0.9 | 4.3 | 0.00 | 0.01 | 0.01 | 53 | 1028.9 |
| 20260510054247 | 67 | 104 | 0.9 | 5.2 | 0.00 | 0.01 | 0.01 | 53 | 1028.9 |
| 20260510053732 | 67 | 83 | 0.9 | 5.2 | 0.00 | 0.01 | 0.01 | 53 | 1029.0 |
| 20260510053232 | 67 | 87 | 0.9 | 5.2 | 0.00 | 0.01 | 0.01 | 52 | 1028.9 |
| 20260510052725 | 67 | 126 | 0.9 | 5.2 | 0.00 | 0.01 | 0.01 | 53 | 1028.9 |
| 20260510052211 | 67 | 119 | 0.9 | 5.2 | 0.00 | 0.01 | 0.01 | 52 | 1028.8 |
| 20260510051716 | 68 | 107 | 0.0 | 2.6 | 0.00 | 0.01 | 0.01 | 52 | 1028.8 |
| 20260510051219 | 68 | 115 | 0.0 | 5.2 | 0.00 | 0.01 | 0.01 | 52 | 1028.9 |
| 20260510050723 | 68 | 111 | 0.0 | 2.6 | 0.00 | 0.01 | 0.01 | 51 | 1028.8 |
| 20260510050218 | 68 | 98 | 0.0 | 0.0 | 0.00 | 0.01 | 0.01 | 51 | 1028.8 |
| 20260510045724 | 68 | 122 | 0.0 | 0.9 | 0.00 | 0.01 | 0.01 | 52 | 1028.9 |
| 20260510045225 | 68 | 101 | 0.0 | 0.0 | 0.00 | 0.01 | 0.01 | 52 | 1028.8 |
| 20260510044128 | 68 | 123 | 0.0 | 3.5 | 0.00 | 0.01 | 0.01 | 52 | 1028.8 |
| 20260510043327 | 68 | 106 | 0.9 | 7.0 | 0.00 | 0.01 | 0.01 | 52 | 1028.8 |
| 20260510042812 | 68 | 126 | 0.0 | 7.0 | 0.00 | 0.01 | 0.01 | 52 | 1028.8 |
| 20260510042300 | 68 | 86 | 0.0 | 0.0 | 0.00 | 0.01 | 0.01 | 51 | 1028.8 |
| 20260510041741 | 68 | 143 | 0.0 | 6.1 | 0.00 | 0.01 | 0.01 | 51 | 1028.9 |
| 20260510040937 | 67 | 110 | 0.0 | 1.7 | 0.00 | 0.01 | 0.01 | 53 | 1028.9 |
| 20260510040433 | 67 | 97 | 0.0 | 6.1 | 0.00 | 0.01 | 0.01 | 51 | 1028.9 |
| 20260510035921 | 67 | 94 | 0.9 | 7.8 | 0.00 | 0.01 | 0.01 | 53 | 1028.9 |
| 20260510035419 | 67 | 105 | 1.7 | 7.8 | 0.00 | 0.01 | 0.01 | 54 | 1029.0 |
| 20260510034926 | 67 | 123 | 1.7 | 7.8 | 0.00 | 0.01 | 0.01 | 54 | 1029.0 |
| 20260510034113 | 67 | 117 | 2.6 | 7.0 | 0.00 | 0.01 | 0.01 | 55 | 1029.1 |
| 20260510033601 | 67 | 120 | 1.7 | 7.0 | 0.00 | 0.01 | 0.01 | 55 | 1029.2 |
| 20260510033055 | 67 | 121 | 0.9 | 7.0 | 0.00 | 0.01 | 0.01 | 55 | 1029.2 |
| 20260510032536 | 67 | 93 | 0.0 | 0.0 | 0.00 | 0.01 | 0.01 | 55 | 1029.3 |
| 20260510032044 | 66 | 92 | 0.9 | 2.6 | 0.00 | 0.01 | 0.01 | 56 | 1029.3 |
| 20260510031545 | 66 | 159 | 0.9 | 7.0 | 0.00 | 0.01 | 0.01 | 57 | 1029.3 |
| 20260510030745 | 66 | 136 | 0.9 | 7.0 | 0.00 | 0.01 | 0.01 | 57 | 1029.5 |
| 20260510030242 | 66 | 134 | 0.0 | 4.3 | 0.00 | 0.01 | 0.01 | 58 | 1029.6 |
| 20260510025725 | 66 | 103 | 0.9 | 2.6 | 0.00 | 0.01 | 0.01 | 58 | 1029.6 |
| 20260510024923 | 65 | 75 | 1.7 | 7.8 | 0.00 | 0.01 | 0.01 | 58 | 1029.7 |
| 20260510024422 | 65 | 131 | 1.7 | 7.8 | 0.00 | 0.01 | 0.01 | 59 | 1029.7 |
| 20260510023902 | 65 | 109 | 0.9 | 6.1 | 0.00 | 0.01 | 0.01 | 59 | 1029.9 |
| 20260510023345 | 65 | 108 | 0.9 | 6.1 | 0.00 | 0.01 | 0.01 | 60 | 1029.9 |
| 20260510022846 | 65 | 63 | 1.7 | 7.8 | 0.00 | 0.01 | 0.01 | 60 | 1030.1 |
| 20260510022347 | 65 | 133 | 2.6 | 9.6 | 0.00 | 0.01 | 0.01 | 60 | 1030.1 |
| 20260510021543 | 65 | 91 | 2.6 | 9.6 | 0.00 | 0.01 | 0.01 | 61 | 1030.3 |
| 20260510020739 | 64 | 85 | 2.6 | 9.6 | 0.00 | 0.01 | 0.01 | 63 | 1030.4 |
| 20260510015935 | 64 | 110 | 0.9 | 7.0 | 0.00 | 0.00 | 0.00 | 62 | 1030.6 |
| 20260510015420 | 64 | 95 | 0.0 | 4.3 | 0.00 | 0.00 | 0.00 | 63 | 1030.5 |
| 20260510014916 | 64 | 95 | 0.0 | 2.6 | 0.00 | 0.00 | 0.00 | 64 | 1030.6 |
| 20260510014417 | 63 | 83 | 0.0 | 5.2 | 0.00 | 0.00 | 0.00 | 64 | 1030.7 |
| 20260510013900 | 63 | 123 | 0.0 | 3.5 | 0.00 | 0.00 | 0.00 | 64 | 1030.8 |
| 20260510013355 | 63 | 95 | 0.0 | 5.2 | 0.00 | 0.00 | 0.00 | 65 | 1030.8 |
| 20260510012836 | 63 | 108 | 0.0 | 7.0 | 0.00 | 0.00 | 0.00 | 66 | 1030.9 |
| 20260510012037 | 62 | 84 | 0.0 | 0.0 | 0.00 | 0.00 | 0.00 | 70 | 1030.9 |
| 20260510011245 | 60 | 115 | 0.0 | 0.0 | 0.00 | 0.00 | 0.00 | 74 | 1031.1 |
| 20260510010726 | 60 | 114 | 0.0 | 0.0 | 0.00 | 0.00 | 0.00 | 76 | 1031.2 |
| 20260510010218 | 59 | 113 | 0.0 | 2.6 | 0.00 | 0.00 | 0.00 | 79 | 1031.2 |
| 20260510005719 | 59 | 109 | 0.0 | 2.6 | 0.00 | 0.00 | 0.00 | 82 | 1031.3 |
| 20260510005202 | 58 | 98 | 0.0 | 0.0 | 0.00 | 0.00 | 0.00 | 87 | 1031.4 |
| 20260510004705 | 57 | 76 | 0.0 | 0.0 | 0.00 | 0.00 | 0.00 | 90 | 1031.4 |
| 20260510004209 | 56 | 96 | 0.0 | 0.0 | 0.00 | 0.00 | 0.00 | 94 | 1031.4 |
| 20260510003406 | 55 | 84 | 0.0 | 0.0 | 0.00 | 0.00 | 0.00 | 97 | 1031.5 |
| 20260510002901 | 54 | 132 | 0.0 | 5.2 | 0.00 | 0.00 | 0.00 | 98 | 1031.5 |
| 20260510002348 | 53 | 156 | 0.0 | 0.0 | 0.00 | 0.00 | 0.00 | 98 | 1031.6 |
| 20260510001846 | 52 | 156 | 0.0 | 0.0 | 0.00 | 0.00 | 0.00 | 98 | 1031.5 |
| 20260510001326 | 52 | 165 | 0.0 | 0.0 | 0.00 | 0.00 | 0.00 | 98 | 1031.6 |
| 20260510000831 | 51 | 165 | 0.0 | 0.0 | 0.00 | 0.00 | 0.00 | 98 | 1031.5 |
| 20260510000011 | 51 | 165 | 0.0 | 0.0 | 0.00 | 0.00 | 0.00 | 98 | 1031.6 |
| 20260509235456 | 50 | 165 | 0.0 | 0.0 | 0.00 | 0.00 | 0.00 | 98 | 1031.6 |
| 20260509235005 | 49 | 165 | 0.0 | 0.0 | 0.00 | 0.00 | 0.00 | 98 | 1031.5 |
| 20260509234447 | 49 | 165 | 0.0 | 0.0 | 0.00 | 0.00 | 0.00 | 98 | 1031.6 |
| 20260509233627 | 48 | 165 | 0.0 | 0.0 | 0.00 | 0.00 | 0.00 | 98 | 1031.6 |
| 20260509233133 | 48 | 165 | 0.0 | 0.0 | 0.00 | 0.00 | 0.00 | 98 | 1031.6 |
| 20260509232616 | 47 | 165 | 0.0 | 0.0 | 0.00 | 0.00 | 0.00 | 98 | 1031.6 |
| 20260509232104 | 46 | 165 | 0.0 | 0.0 | 0.00 | 0.00 | 0.00 | 98 | 1031.6 |
| 20260509231304 | 45 | 165 | 0.0 | 0.0 | 0.00 | 0.00 | 0.00 | 98 | 1031.6 |
| 20260509230452 | 44 | 165 | 0.0 | 0.0 | 0.00 | 0.00 | 0.00 | 98 | 1031.6 |
| 20260509230001 | 43 | 165 | 0.0 | 0.0 | 0.00 | 0.00 | 0.00 | 98 | 1031.6 |
| 20260509225448 | 43 | 165 | 0.0 | 0.0 | 0.00 | 0.00 | 0.00 | 98 | 1031.6 |
| 20260509224952 | 42 | 165 | 0.0 | 0.0 | 0.00 | 0.00 | 0.00 | 98 | 1031.6 |
| 20260509224446 | 41 | 240 | 0.0 | 0.0 | 0.00 | 0.00 | 0.00 | 98 | 1031.7 |
| 20260509223942 | 40 | 240 | 0.0 | 0.0 | 0.00 | 0.00 | 0.00 | 97 | 1031.6 |
| 20260509223440 | 40 | 240 | 0.0 | 0.0 | 0.00 | 0.00 | 0.00 | 97 | 1031.6 |
| 20260509222928 | 39 | 240 | 0.0 | 0.0 | 0.00 | 0.00 | 0.00 | 98 | 1031.5 |
| 20260509222430 | 38 | 240 | 0.0 | 0.0 | 0.00 | 0.00 | 0.00 | 97 | 1031.5 |
| 20260509221931 | 37 | 240 | 0.0 | 0.0 | 0.00 | 0.00 | 0.00 | 97 | 1031.5 |
| 20260509221440 | 37 | 240 | 0.0 | 0.0 | 0.00 | 0.00 | 0.00 | 97 | 1031.4 |
| 20260509220948 | 36 | 240 | 0.0 | 0.0 | 0.00 | 0.00 | 0.00 | 97 | 1031.4 |
| 20260509220130 | 35 | 240 | 0.0 | 0.0 | 0.00 | 0.00 | 0.00 | 97 | 1031.4 |
| 20260509215633 | 35 | 240 | 0.0 | 0.0 | 0.00 | 0.00 | 0.00 | 97 | 1031.2 |
| 20260509215136 | 34 | 240 | 0.0 | 0.0 | 0.00 | 0.00 | 0.00 | 97 | 1031.2 |
| 20260509214625 | 34 | 240 | 0.0 | 0.0 | 0.00 | 0.00 | 0.00 | 97 | 1031.1 |
| 20260509214126 | 33 | 240 | 0.0 | 0.0 | 0.00 | 0.00 | 0.00 | 97 | 1031.1 |
| 20260509213607 | 33 | 240 | 0.0 | 0.0 | 0.00 | 0.00 | 0.00 | 97 | 1031.1 |
| 20260509213104 | 33 | 240 | 0.0 | 0.0 | 0.00 | 0.00 | 0.00 | 97 | 1030.9 |
| 20260509212612 | 33 | 240 | 0.0 | 0.0 | 0.00 | 0.00 | 0.00 | 96 | 1030.8 |
| 20260509212055 | 33 | 240 | 0.0 | 0.0 | 0.00 | 0.00 | 0.00 | 96 | 1030.8 |
| 20260509211545 | 33 | 240 | 0.0 | 0.0 | 0.00 | 0.00 | 0.00 | 96 | 1030.8 |
| 20260509211038 | 32 | 240 | 0.0 | 0.0 | 0.00 | 0.00 | 0.00 | 96 | 1030.8 |
| 20260509210525 | 32 | 240 | 0.0 | 0.0 | 0.00 | 0.00 | 0.00 | 96 | 1030.6 |
| 20260509210015 | 32 | 240 | 0.0 | 0.0 | 0.00 | 0.00 | 0.00 | 96 | 1030.6 |
| 20260509205456 | 33 | 240 | 0.0 | 0.0 | 0.00 | 0.00 | 0.00 | 96 | 1030.5 |
| 20260509204944 | 33 | 240 | 0.0 | 0.0 | 0.00 | 0.00 | 0.00 | 96 | 1030.4 |
| 20260509204440 | 33 | 240 | 0.0 | 0.0 | 0.00 | 0.00 | 0.00 | 96 | 1030.4 |
| 20260509203921 | 33 | 240 | 0.0 | 0.0 | 0.00 | 0.00 | 0.00 | 96 | 1030.3 |
| 20260509203426 | 33 | 240 | 0.0 | 0.0 | 0.00 | 0.00 | 0.00 | 96 | 1030.3 |
| 20260509202623 | 33 | 240 | 0.0 | 0.0 | 0.00 | 0.00 | 0.00 | 96 | 1030.2 |
| 20260509201803 | 33 | 240 | 0.0 | 0.0 | 0.00 | 0.00 | 0.00 | 96 | 1030.0 |
| 20260509201303 | 33 | 240 | 0.0 | 0.0 | 0.00 | 0.00 | 0.00 | 96 | 1030.0 |
| 20260509200743 | 33 | 240 | 0.0 | 0.0 | 0.00 | 0.00 | 0.00 | 96 | 1030.0 |
| 20260509200234 | 33 | 240 | 0.0 | 0.0 | 0.00 | 0.00 | 0.00 | 96 | 1029.9 |
| 20260509195742 | 33 | 240 | 0.0 | 0.0 | 0.00 | 0.00 | 0.00 | 96 | 1029.8 |
| 20260509194647 | 33 | 240 | 0.0 | 0.0 | 0.00 | 0.00 | 0.00 | 96 | 1029.7 |
| 20260509194150 | 34 | 240 | 0.0 | 0.0 | 0.00 | 0.00 | 0.00 | 96 | 1029.6 |
| 20260509193057 | 33 | 240 | 0.0 | 0.0 | 0.00 | 0.00 | 0.00 | 96 | 1029.5 |
| 20260509192253 | 34 | 240 | 0.0 | 0.0 | 0.00 | 0.00 | 0.00 | 96 | 1029.4 |
| 20260509191800 | 34 | 240 | 0.0 | 0.0 | 0.00 | 0.00 | 0.00 | 96 | 1029.3 |
| 20260509191300 | 34 | 240 | 0.0 | 0.0 | 0.00 | 0.00 | 0.00 | 96 | 1029.3 |
| 20260509190744 | 34 | 240 | 0.0 | 0.0 | 0.00 | 0.00 | 0.00 | 96 | 1029.2 |
| 20260509190248 | 34 | 240 | 0.0 | 0.0 | 0.00 | 0.00 | 0.00 | 96 | 1029.2 |
| 20260509185744 | 34 | 240 | 0.0 | 0.0 | 0.00 | 0.00 | 0.00 | 96 | 1029.1 |
| 20260509185231 | 34 | 240 | 0.0 | 0.0 | 0.00 | 0.00 | 0.00 | 96 | 1029.1 |
| 20260509184718 | 34 | 240 | 0.0 | 0.0 | 0.00 | 0.00 | 0.00 | 96 | 1029.0 |
| 20260509183908 | 34 | 240 | 0.0 | 0.0 | 0.00 | 0.00 | 0.00 | 96 | 1028.9 |
| 20260509183356 | 34 | 240 | 0.0 | 0.0 | 0.00 | 0.00 | 0.00 | 96 | 1028.7 |
| 20260509182536 | 34 | 240 | 0.0 | 0.0 | 0.00 | 0.00 | 0.00 | 96 | 1028.7 |
| 20260509182040 | 34 | 240 | 0.0 | 0.0 | 0.00 | 0.00 | 0.00 | 96 | 1028.6 |
| 20260509181545 | 34 | 240 | 0.0 | 0.0 | 0.00 | 0.00 | 0.00 | 96 | 1028.6 |
| 20260509181034 | 34 | 240 | 0.0 | 0.0 | 0.00 | 0.00 | 0.00 | 96 | 1028.6 |
| 20260509180517 | 34 | 240 | 0.0 | 0.0 | 0.00 | 0.00 | 0.00 | 96 | 1028.6 |
| 20260509180003 | 34 | 240 | 0.0 | 0.0 | 0.00 | 0.00 | 0.00 | 96 | 1028.5 |
| 20260509175510 | 34 | 240 | 0.0 | 0.0 | 0.00 | 0.00 | 0.00 | 96 | 1028.5 |
| 20260509175014 | 34 | 240 | 0.0 | 0.0 | 0.00 | 0.00 | 0.00 | 96 | 1028.5 |
| 20260509174520 | 34 | 240 | 0.0 | 0.0 | 0.00 | 0.00 | 0.00 | 96 | 1028.5 |
| 20260509174007 | 34 | 240 | 0.0 | 0.0 | 0.00 | 0.00 | 0.00 | 95 | 1028.4 |
| 20260509173448 | 34 | 240 | 0.0 | 0.0 | 0.00 | 0.00 | 0.00 | 96 | 1028.4 |
| 20260509172952 | 34 | 240 | 0.0 | 0.0 | 0.00 | 0.00 | 0.00 | 96 | 1028.4 |
| 20260509172445 | 35 | 240 | 0.0 | 0.0 | 0.00 | 0.00 | 0.00 | 96 | 1028.4 |
| 20260509171626 | 35 | 240 | 0.0 | 0.0 | 0.00 | 0.00 | 0.00 | 96 | 1028.3 |
| 20260509171109 | 35 | 240 | 0.0 | 0.0 | 0.00 | 0.00 | 0.00 | 96 | 1028.3 |
| 20260509170557 | 35 | 240 | 0.0 | 0.0 | 0.00 | 0.00 | 0.00 | 96 | 1028.3 |
| 20260509165802 | 35 | 240 | 0.0 | 0.0 | 0.00 | 0.00 | 0.00 | 96 | 1028.2 |
| 20260509165247 | 35 | 240 | 0.0 | 0.0 | 0.00 | 0.00 | 0.00 | 96 | 1028.2 |
| 20260509164730 | 35 | 240 | 0.0 | 0.0 | 0.00 | 0.00 | 0.00 | 96 | 1028.2 |
| 20260509163932 | 35 | 240 | 0.0 | 0.0 | 0.00 | 0.00 | 0.00 | 96 | 1028.3 |
| 20260509163139 | 35 | 240 | 0.0 | 0.0 | 0.00 | 0.00 | 0.00 | 95 | 1028.3 |
| 20260509162623 | 35 | 240 | 0.0 | 0.0 | 0.00 | 0.00 | 0.00 | 95 | 1028.3 |
| 20260509162123 | 35 | 240 | 0.0 | 0.0 | 0.00 | 0.00 | 0.00 | 96 | 1028.4 |
| 20260509161611 | 36 | 240 | 0.0 | 0.0 | 0.00 | 0.00 | 0.00 | 95 | 1028.4 |
| 20260509161059 | 36 | 240 | 0.0 | 0.0 | 0.00 | 0.00 | 0.00 | 95 | 1028.6 |
| 20260509160247 | 36 | 240 | 0.0 | 0.0 | 0.00 | 0.00 | 0.00 | 96 | 1028.6 |
| 20260509155732 | 36 | 240 | 0.0 | 0.0 | 0.00 | 0.00 | 0.00 | 96 | 1028.5 |
| 20260509154933 | 36 | 240 | 0.0 | 0.0 | 0.00 | 0.00 | 0.00 | 95 | 1028.6 |
| 20260509154428 | 36 | 240 | 0.0 | 0.0 | 0.00 | 0.00 | 0.00 | 95 | 1028.5 |
| 20260509153930 | 36 | 240 | 0.0 | 0.0 | 0.00 | 0.00 | 0.00 | 95 | 1028.6 |